Weather in Fuzhou

China     26˚00′49″N   119˚19′05″E
temp.,
°C
wind,
m/s
gust,
m/s
humid.,
%
clouds,
%
prec.,
mm/h
press.,
hPa
HPBL,
m
29 november, sun
sun2923:00+14˚nne127588 0.0 1026359
02:00+13˚nne127793 0.0 1025278
05:00+13˚nne117969 0.0 1024115
08:00+13˚n117785 0.0 1026173
11:00+16˚ne136591 0.0 1026746
14:00+17˚ene246090 0.0 1024894
17:00+15˚ne237096 0.0 1025332
20:00+14˚nne137697 0.0 1026270
30 november, mon
mon3023:00+13˚nne127694 0.0 1027154
02:00+13˚nne137797 0.0 1026353
05:00+13˚nne1276100 0.0 1026150
08:00+14˚nne277195 0.0 1027902
11:00+15˚ne376593 0.0 10271055
14:00+15˚ne266694 0.0 10251079
17:00+14˚ene256972 0.0 1026502
20:00+13˚ne287071 0.0 1028926
1 december, tue
tue123:00+12˚n167366 0.0 1027500
02:00+10˚nnw228037 0.0 102679
05:00+10˚nw127922 0.0 102660
08:00+12˚nw236958 0.0 1027247
11:00+17˚ne365691 0.0 10261014
14:00+17˚ene365674 0.0 10231070
17:00+14˚ene38718 0.0 1023631
20:00+13˚nne3107816 0.0 1025689
2 december, wed
wed223:00+12˚nnw258052 0.0 1024393
02:00+10˚nw128443 0.0 102346
05:00+10˚nw12854 0.0 102338
08:00+12˚nw12752 0.0 1024161
11:00+18˚ne25480 0.0 10231194
14:00+18˚ene35460 0.0 10211238
17:00+14˚e24650 0.0 1022221
20:00+13˚ne310723 0.0 1024646
3 december, thu
thu323:00+11˚n14713 0.0 1025179
02:00+10˚nnw12757 0.0 102462
05:00+9˚nnw12795 0.0 102450
08:00+11˚nnw12673 0.0 1026186
11:00+16˚ne47470 0.0 10251345
14:00+17˚ne46460 0.0 10231502
17:00+14˚ene376219 0.0 1024649
20:00+11˚ne295930 0.0 1027818